Time,TemperatureF,DewpointF,PressureIn,WindDirection,WindDirectionDegrees,WindSpeedMPH,WindSpeedGustMPH,Humidity,HourlyPrecipIn,Conditions,Clouds,dailyrainin,SoftwareType,DateUTC
2013-04-25 00:01:00,58.0,52.0,29.95,WSW,239,0.0,0.0,81,0.00,,,0.00,,2013-04-25 07:01:00,
2013-04-25 00:11:00,57.0,52.0,29.95,WSW,239,0.0,0.0,82,0.00,,,0.00,,2013-04-25 07:11:00,
2013-04-25 00:21:00,57.0,52.0,29.95,WSW,239,0.0,0.0,82,0.00,,,0.00,,2013-04-25 07:21:00,
2013-04-25 00:31:00,56.0,51.0,29.96,WSW,239,0.0,0.0,83,0.00,,,0.00,,2013-04-25 07:31:00,
2013-04-25 00:42:00,56.0,51.0,29.96,WSW,239,0.0,0.0,83,0.00,,,0.00,,2013-04-25 07:42:00,
2013-04-25 00:52:00,57.0,52.0,29.96,WSW,239,0.0,0.0,84,0.00,,,0.00,,2013-04-25 07:52:00,
2013-04-25 01:01:00,57.0,52.0,29.96,WSW,239,0.0,1.0,83,0.00,,,0.00,,2013-04-25 08:01:00,
2013-04-25 01:11:00,57.0,52.0,29.96,WSW,239,0.0,1.0,83,0.00,,,0.00,,2013-04-25 08:11:00,
2013-04-25 01:21:00,56.0,51.0,29.95,WSW,239,0.0,0.0,82,0.00,,,0.00,,2013-04-25 08:21:00,
2013-04-25 01:31:00,55.0,50.0,29.95,WSW,239,0.0,0.0,83,0.00,,,0.00,,2013-04-25 08:31:00,
2013-04-25 01:41:00,55.0,50.0,29.95,WSW,239,0.0,0.0,83,0.00,,,0.00,,2013-04-25 08:41:00,
2013-04-25 01:51:00,55.0,50.0,29.94,WSW,239,0.0,0.0,84,0.00,,,0.00,,2013-04-25 08:51:00,
2013-04-25 02:01:00,54.0,49.0,29.94,WSW,239,0.0,0.0,84,0.00,,,0.00,,2013-04-25 09:01:00,
2013-04-25 02:11:00,54.0,49.0,29.94,WSW,239,0.0,0.0,84,0.00,,,0.00,,2013-04-25 09:11:00,
2013-04-25 02:21:00,54.0,50.0,29.94,WSW,239,0.0,0.0,85,0.00,,,0.00,,2013-04-25 09:21:00,
2013-04-25 02:32:00,54.0,50.0,29.94,WSW,240,0.0,1.0,86,0.00,,,0.00,,2013-04-25 09:32:00,
2013-04-25 02:42:00,54.0,50.0,29.94,WSW,240,0.0,1.0,86,0.00,,,0.00,,2013-04-25 09:42:00,
2013-04-25 02:52:00,53.0,49.0,29.94,WSW,240,0.0,0.0,86,0.00,,,0.00,,2013-04-25 09:52:00,
2013-04-25 03:02:00,53.0,49.0,29.94,WSW,240,0.0,2.0,87,0.00,,,0.00,,2013-04-25 10:02:00,
2013-04-25 03:12:00,53.0,49.0,29.94,WSW,240,0.0,2.0,87,0.00,,,0.00,,2013-04-25 10:12:00,
2013-04-25 03:22:00,53.0,49.0,29.94,WSW,240,0.0,0.0,87,0.00,,,0.00,,2013-04-25 10:22:00,
2013-04-25 03:32:00,53.0,50.0,29.95,WSW,240,0.0,1.0,88,0.00,,,0.00,,2013-04-25 10:32:00,
2013-04-25 03:42:00,53.0,50.0,29.95,WSW,240,0.0,1.0,88,0.00,,,0.00,,2013-04-25 10:42:00,
2013-04-25 03:52:00,53.0,50.0,29.95,WSW,240,0.0,0.0,88,0.00,,,0.00,,2013-04-25 10:52:00,
2013-04-25 04:02:00,54.0,51.0,29.95,WSW,240,0.0,0.0,88,0.00,,,0.00,,2013-04-25 11:02:00,
2013-04-25 04:12:00,54.0,51.0,29.95,WSW,240,0.0,0.0,88,0.00,,,0.00,,2013-04-25 11:12:00,
2013-04-25 04:22:00,54.0,51.0,29.96,WSW,240,0.0,0.0,88,0.00,,,0.00,,2013-04-25 11:22:00,
2013-04-25 04:32:00,54.0,51.0,29.96,WSW,240,0.0,0.0,88,0.00,,,0.00,,2013-04-25 11:32:00,
2013-04-25 04:42:00,54.0,51.0,29.96,WSW,240,0.0,0.0,88,0.00,,,0.00,,2013-04-25 11:42:00,
2013-04-25 04:51:00,54.0,50.0,29.96,WSW,240,0.0,0.0,87,0.00,,,0.00,,2013-04-25 11:51:00,
2013-04-25 05:01:00,55.0,51.0,29.96,WSW,240,0.0,0.0,87,0.00,,,0.00,,2013-04-25 12:01:00,
2013-04-25 05:12:00,55.0,51.0,29.96,WSW,240,0.0,0.0,87,0.00,,,0.00,,2013-04-25 12:12:00,
2013-04-25 05:21:00,55.0,51.0,29.96,WSW,240,0.0,0.0,87,0.00,,,0.00,,2013-04-25 12:21:00,
2013-04-25 05:31:00,55.0,51.0,29.96,WSW,240,0.0,0.0,87,0.00,,,0.00,,2013-04-25 12:31:00,
2013-04-25 05:41:00,55.0,51.0,29.96,WSW,240,0.0,0.0,87,0.00,,,0.00,,2013-04-25 12:41:00,
2013-04-25 05:51:00,55.0,51.0,29.96,WSW,240,0.0,0.0,87,0.00,,,0.00,,2013-04-25 12:51:00,
2013-04-25 06:02:00,55.0,51.0,29.97,WSW,240,0.0,0.0,86,0.00,,,0.00,,2013-04-25 13:02:00,
2013-04-25 06:11:00,55.0,51.0,29.97,WSW,240,0.0,0.0,86,0.00,,,0.00,,2013-04-25 13:11:00,
2013-04-25 06:21:00,55.0,51.0,29.97,WSW,240,0.0,0.0,86,0.00,,,0.00,,2013-04-25 13:21:00,
2013-04-25 06:31:00,55.0,51.0,29.98,WSW,240,0.0,0.0,86,0.00,,,0.00,,2013-04-25 13:31:00,
2013-04-25 06:42:00,55.0,51.0,29.98,WSW,240,0.0,0.0,86,0.00,,,0.00,,2013-04-25 13:42:00,
2013-04-25 06:52:00,55.0,51.0,29.98,WSW,240,0.0,0.0,86,0.00,,,0.00,,2013-04-25 13:52:00,
2013-04-25 07:01:00,55.0,51.0,29.99,WSW,240,0.0,0.0,86,0.00,,,0.00,,2013-04-25 14:01:00,
2013-04-25 07:11:00,55.0,51.0,29.99,WSW,240,0.0,0.0,86,0.00,,,0.00,,2013-04-25 14:11:00,
2013-04-25 07:21:00,55.0,51.0,30.00,WSW,240,0.0,0.0,86,0.00,,,0.00,,2013-04-25 14:21:00,
2013-04-25 07:32:00,56.0,52.0,30.00,WSW,240,0.0,0.0,86,0.00,,,0.00,,2013-04-25 14:32:00,
2013-04-25 07:42:00,56.0,52.0,30.00,WSW,240,0.0,0.0,86,0.00,,,0.00,,2013-04-25 14:42:00,
2013-04-25 07:51:00,57.0,52.0,30.01,WSW,240,0.0,0.0,84,0.00,,,0.00,,2013-04-25 14:51:00,
2013-04-25 08:02:00,59.0,52.0,30.01,WSW,240,0.0,0.0,79,0.00,,,0.00,,2013-04-25 15:02:00,
2013-04-25 08:11:00,59.0,52.0,30.01,WSW,240,0.0,0.0,79,0.00,,,0.00,,2013-04-25 15:11:00,
2013-04-25 08:21:00,60.0,53.0,30.01,WSW,242,0.0,0.0,77,0.00,,,0.00,,2013-04-25 15:21:00,
2013-04-25 08:33:00,60.0,52.0,30.02,SSW,200,0.0,0.0,76,0.00,,,0.00,,2013-04-25 15:33:00,
2013-04-25 08:42:00,60.0,52.0,30.02,SSW,200,0.0,0.0,76,0.00,,,0.00,,2013-04-25 15:42:00,
2013-04-25 08:52:00,61.0,52.0,30.02,SSW,204,0.0,1.0,71,0.00,,,0.00,,2013-04-25 15:52:00,
2013-04-25 09:02:00,62.0,50.0,30.02,East,84,0.0,1.0,65,0.00,,,0.00,,2013-04-25 16:02:00,
2013-04-25 09:13:00,62.0,50.0,30.02,East,84,0.0,1.0,65,0.00,,,0.00,,2013-04-25 16:13:00,
2013-04-25 09:24:00,64.0,50.0,30.02,South,182,0.0,1.0,60,0.00,,,0.00,,2013-04-25 16:24:00,
2013-04-25 09:32:00,65.0,50.0,30.02,South,182,0.0,1.0,59,0.00,,,0.00,,2013-04-25 16:32:00,
2013-04-25 09:42:00,65.0,50.0,30.02,South,182,0.0,1.0,59,0.00,,,0.00,,2013-04-25 16:42:00,
2013-04-25 09:52:00,65.0,48.0,30.03,SW,221,0.0,2.0,55,0.00,,,0.00,,2013-04-25 16:52:00,
2013-04-25 10:02:00,67.0,49.0,30.03,SW,225,0.0,2.0,52,0.00,,,0.00,,2013-04-25 17:02:00,
2013-04-25 10:11:00,67.0,49.0,30.03,SW,225,0.0,2.0,52,0.00,,,0.00,,2013-04-25 17:11:00,
2013-04-25 10:22:00,67.0,49.0,30.03,SSE,163,0.0,5.0,52,0.00,,,0.00,,2013-04-25 17:22:00,
2013-04-25 10:31:00,67.0,48.0,30.03,SW,217,1.0,6.0,51,0.00,,,0.00,,2013-04-25 17:31:00,
2013-04-25 10:42:00,67.0,48.0,30.03,SW,217,1.0,6.0,51,0.00,,,0.00,,2013-04-25 17:42:00,
2013-04-25 10:53:00,68.0,49.0,30.04,SW,234,1.0,6.0,50,0.00,,,0.00,,2013-04-25 17:53:00,
2013-04-25 11:01:00,69.0,48.0,30.04,West,267,1.0,7.0,47,0.00,,,0.00,,2013-04-25 18:01:00,
2013-04-25 11:11:00,69.0,48.0,30.04,West,267,1.0,7.0,47,0.00,,,0.00,,2013-04-25 18:11:00,
2013-04-25 11:21:00,69.0,48.0,30.04,South,188,1.0,8.0,47,0.00,,,0.00,,2013-04-25 18:21:00,
2013-04-25 11:32:00,70.0,48.0,30.04,SSW,196,4.0,7.0,45,0.00,,,0.00,,2013-04-25 18:32:00,
2013-04-25 11:42:00,70.0,48.0,30.04,SSW,196,4.0,7.0,45,0.00,,,0.00,,2013-04-25 18:42:00,
2013-04-25 11:52:00,70.0,48.0,30.04,WNW,290,2.0,7.0,46,0.00,,,0.00,,2013-04-25 18:52:00,
2013-04-25 12:01:00,71.0,47.0,30.04,SW,223,3.0,8.0,43,0.00,,,0.00,,2013-04-25 19:01:00,
2013-04-25 12:12:00,71.0,47.0,30.04,SW,223,3.0,8.0,43,0.00,,,0.00,,2013-04-25 19:12:00,
2013-04-25 12:21:00,71.0,47.0,30.04,SW,223,4.0,11.0,42,0.00,,,0.00,,2013-04-25 19:21:00,
2013-04-25 12:31:00,71.0,47.0,30.04,SW,236,2.0,11.0,42,0.00,,,0.00,,2013-04-25 19:31:00,
2013-04-25 12:41:00,71.0,47.0,30.04,SW,236,2.0,11.0,42,0.00,,,0.00,,2013-04-25 19:41:00,
2013-04-25 12:52:00,71.0,45.0,30.03,SW,220,2.0,10.0,40,0.00,,,0.00,,2013-04-25 19:52:00,
2013-04-25 13:01:00,72.0,46.0,30.03,SW,230,3.0,8.0,39,0.00,,,0.00,,2013-04-25 20:01:00,
2013-04-25 13:11:00,72.0,46.0,30.03,SW,230,3.0,8.0,39,0.00,,,0.00,,2013-04-25 20:11:00,
2013-04-25 13:21:00,71.0,46.0,30.03,SW,236,3.0,9.0,41,0.00,,,0.00,,2013-04-25 20:21:00,
2013-04-25 13:32:00,72.0,46.0,30.02,West,275,2.0,11.0,40,0.00,,,0.00,,2013-04-25 20:32:00,
2013-04-25 13:42:00,72.0,46.0,30.02,West,275,2.0,11.0,40,0.00,,,0.00,,2013-04-25 20:42:00,
2013-04-25 13:51:00,72.0,46.0,30.02,South,174,4.0,10.0,40,0.00,,,0.00,,2013-04-25 20:51:00,
2013-04-25 14:01:00,72.0,46.0,30.02,West,275,4.0,10.0,40,0.00,,,0.00,,2013-04-25 21:01:00,
2013-04-25 14:11:00,72.0,46.0,30.02,West,275,4.0,10.0,40,0.00,,,0.00,,2013-04-25 21:11:00,
2013-04-25 14:21:00,72.0,46.0,30.03,SSW,200,6.0,11.0,39,0.00,,,0.00,,2013-04-25 21:21:00,
2013-04-25 14:33:00,72.0,46.0,30.03,SSW,207,3.0,11.0,40,0.00,,,0.00,,2013-04-25 21:33:00,
2013-04-25 14:42:00,72.0,46.0,30.03,SSW,207,3.0,11.0,40,0.00,,,0.00,,2013-04-25 21:42:00,
2013-04-25 14:52:00,72.0,46.0,30.03,WSW,240,5.0,10.0,40,0.00,,,0.00,,2013-04-25 21:52:00,
2013-04-25 15:02:00,72.0,46.0,30.03,SSW,194,3.0,10.0,40,0.00,,,0.00,,2013-04-25 22:02:00,
2013-04-25 15:12:00,72.0,46.0,30.03,SSW,194,3.0,10.0,40,0.00,,,0.00,,2013-04-25 22:12:00,
2013-04-25 15:22:00,71.0,45.0,30.03,SW,220,3.0,10.0,40,0.00,,,0.00,,2013-04-25 22:22:00,
2013-04-25 15:32:00,71.0,45.0,30.03,SSW,200,5.0,13.0,40,0.00,,,0.00,,2013-04-25 22:32:00,
2013-04-25 15:42:00,71.0,45.0,30.03,SSW,200,5.0,13.0,40,0.00,,,0.00,,2013-04-25 22:42:00,
2013-04-25 15:52:00,71.0,46.0,30.03,SSW,194,4.0,15.0,41,0.00,,,0.00,,2013-04-25 22:52:00,
2013-04-25 16:02:00,71.0,46.0,30.03,WSW,237,5.0,14.0,41,0.00,,,0.00,,2013-04-25 23:02:00,
2013-04-25 16:12:00,71.0,46.0,30.03,WSW,237,5.0,14.0,41,0.00,,,0.00,,2013-04-25 23:12:00,
2013-04-25 16:21:00,71.0,45.0,30.01,SW,225,6.0,15.0,40,0.00,,,0.00,,2013-04-25 23:21:00,
2013-04-25 16:32:00,71.0,47.0,30.01,South,177,5.0,12.0,43,0.00,,,0.00,,2013-04-25 23:32:00,
2013-04-25 16:41:00,71.0,47.0,30.01,South,177,5.0,12.0,43,0.00,,,0.00,,2013-04-25 23:41:00,
2013-04-25 16:52:00,70.0,46.0,30.01,South,178,4.0,13.0,43,0.00,,,0.00,,2013-04-25 23:52:00,
2013-04-25 17:01:00,70.0,47.0,30.01,SW,219,6.0,12.0,44,0.00,,,0.00,,2013-04-26 00:01:00,
2013-04-25 17:11:00,70.0,47.0,30.01,SW,219,6.0,12.0,44,0.00,,,0.00,,2013-04-26 00:11:00,
2013-04-25 17:21:00,70.0,48.0,30.01,SW,220,4.0,10.0,45,0.00,,,0.00,,2013-04-26 00:21:00,
2013-04-25 17:31:00,70.0,48.0,30.01,SSW,204,3.0,13.0,46,0.00,,,0.00,,2013-04-26 00:31:00,
2013-04-25 17:41:00,70.0,48.0,30.01,SSW,204,3.0,13.0,46,0.00,,,0.00,,2013-04-26 00:41:00,
2013-04-25 17:51:00,69.0,47.0,30.01,SSW,205,4.0,11.0,46,0.00,,,0.00,,2013-04-26 00:51:00,
2013-04-25 18:01:00,68.0,47.0,30.01,SW,225,4.0,11.0,47,0.00,,,0.00,,2013-04-26 01:01:00,
2013-04-25 18:11:00,68.0,47.0,30.01,SW,225,4.0,11.0,47,0.00,,,0.00,,2013-04-26 01:11:00,
2013-04-25 18:21:00,68.0,49.0,30.01,South,190,5.0,11.0,50,0.00,,,0.00,,2013-04-26 01:21:00,
2013-04-25 18:31:00,67.0,48.0,30.01,SSW,213,4.0,12.0,51,0.00,,,0.00,,2013-04-26 01:31:00,
2013-04-25 18:41:00,67.0,48.0,30.01,SSW,213,4.0,12.0,51,0.00,,,0.00,,2013-04-26 01:41:00,
2013-04-25 18:52:00,67.0,49.0,30.01,South,180,3.0,11.0,52,0.00,,,0.00,,2013-04-26 01:52:00,
2013-04-25 19:01:00,66.0,49.0,30.01,SW,219,4.0,8.0,54,0.00,,,0.00,,2013-04-26 02:01:00,
2013-04-25 19:11:00,66.0,49.0,30.01,SW,219,4.0,8.0,54,0.00,,,0.00,,2013-04-26 02:11:00,
2013-04-25 19:21:00,66.0,49.0,30.01,SW,220,2.0,8.0,55,0.00,,,0.00,,2013-04-26 02:21:00,
2013-04-25 19:31:00,65.0,49.0,30.01,SW,234,3.0,8.0,57,0.00,,,0.00,,2013-04-26 02:31:00,
2013-04-25 19:42:00,65.0,49.0,30.01,SW,234,3.0,8.0,57,0.00,,,0.00,,2013-04-26 02:42:00,
2013-04-25 19:51:00,64.0,49.0,30.02,SSW,196,1.0,8.0,59,0.00,,,0.00,,2013-04-26 02:51:00,
2013-04-25 20:01:00,64.0,50.0,30.02,South,184,0.0,7.0,61,0.00,,,0.00,,2013-04-26 03:01:00,
2013-04-25 20:11:00,64.0,50.0,30.02,South,184,0.0,7.0,61,0.00,,,0.00,,2013-04-26 03:11:00,
2013-04-25 20:21:00,63.0,50.0,30.03,West,259,0.0,3.0,63,0.00,,,0.00,,2013-04-26 03:21:00,
2013-04-25 20:32:00,62.0,50.0,30.03,West,261,0.0,3.0,65,0.00,,,0.00,,2013-04-26 03:32:00,
2013-04-25 20:43:00,62.0,50.0,30.03,West,261,0.0,3.0,65,0.00,,,0.00,,2013-04-26 03:43:00,
2013-04-25 20:52:00,62.0,51.0,30.03,West,263,0.0,4.0,68,0.00,,,0.00,,2013-04-26 03:52:00,
2013-04-25 21:02:00,61.0,51.0,30.04,West,263,0.0,0.0,69,0.00,,,0.00,,2013-04-26 04:02:00,
2013-04-25 21:12:00,61.0,51.0,30.04,West,263,0.0,0.0,69,0.00,,,0.00,,2013-04-26 04:12:00,
2013-04-25 21:22:00,60.0,50.0,30.05,West,263,0.0,3.0,69,0.00,,,0.00,,2013-04-26 04:22:00,
2013-04-25 21:32:00,60.0,50.0,30.06,West,263,0.0,2.0,69,0.00,,,0.00,,2013-04-26 04:32:00,
2013-04-25 21:43:00,60.0,50.0,30.06,West,263,0.0,2.0,69,0.00,,,0.00,,2013-04-26 04:43:00,
2013-04-25 21:52:00,60.0,50.0,30.06,West,264,0.0,3.0,69,0.00,,,0.00,,2013-04-26 04:52:00,
2013-04-25 22:02:00,59.0,49.0,30.07,West,264,0.0,2.0,69,0.00,,,0.00,,2013-04-26 05:02:00,
2013-04-25 22:12:00,59.0,49.0,30.07,West,264,0.0,2.0,69,0.00,,,0.00,,2013-04-26 05:12:00,
2013-04-25 22:22:00,58.0,48.0,30.08,West,264,0.0,0.0,70,0.00,,,0.00,,2013-04-26 05:22:00,
2013-04-25 22:32:00,57.0,49.0,30.08,West,264,0.0,0.0,74,0.00,,,0.00,,2013-04-26 05:32:00,
2013-04-25 22:42:00,57.0,49.0,30.08,West,264,0.0,0.0,74,0.00,,,0.00,,2013-04-26 05:42:00,
2013-04-25 22:52:00,56.0,49.0,30.08,West,264,0.0,0.0,76,0.00,,,0.00,,2013-04-26 05:52:00,
2013-04-25 23:02:00,55.0,48.0,30.09,West,264,0.0,0.0,77,0.00,,,0.00,,2013-04-26 06:02:00,
2013-04-25 23:11:00,55.0,48.0,30.09,West,264,0.0,0.0,77,0.00,,,0.00,,2013-04-26 06:11:00,
2013-04-25 23:21:00,54.0,48.0,30.09,West,264,0.0,0.0,79,0.00,,,0.00,,2013-04-26 06:21:00,
2013-04-25 23:32:00,53.0,47.0,30.09,West,264,0.0,0.0,80,0.00,,,0.00,,2013-04-26 06:32:00,
2013-04-25 23:41:00,53.0,47.0,30.09,West,264,0.0,0.0,80,0.00,,,0.00,,2013-04-26 06:41:00,
2013-04-25 23:51:00,53.0,47.0,30.09,West,264,0.0,0.0,80,0.00,,,0.00,,2013-04-26 06:51:00,